EW3360 Weather Reports


time (UTC)temp
F
wind
direction
speed
knots
gust
knots
rain 1hr
in
rain 24hr
in
rain mn
in
humidity
%
barometer
mb
20260906071600 65 231 0.0 0.0 0.00 0.00 0.00 100 1011.6
20260906070059 65 231 0.0 0.0 0.00 0.00 0.00 100 1011.8
20260906064555 66 231 0.0 0.9 0.00 0.00 0.00 100 1011.7
20260906063054 66 231 0.0 0.0 0.00 0.00 0.00 100 1011.9
20260906061554 66 231 0.0 0.9 0.00 0.00 0.00 99 1012.0
20260906060050 66 231 0.0 1.7 0.00 0.00 0.00 99 1012.1
20260906054559 67 231 0.0 0.0 0.00 0.00 0.00 99 1012.5
20260906053054 67 231 0.0 2.6 0.00 0.00 0.00 98 1012.5
20260906051604 67 231 1.7 2.6 0.00 0.00 0.00 99 1012.6
20260906050046 67 67 0.9 1.7 0.00 0.00 0.00 100 1012.6
20260906044549 67 67 0.0 0.0 0.00 0.00 0.00 100 1012.8
20260906043043 67 67 0.0 0.9 0.00 0.00 0.00 99 1012.9
20260906041536 67 67 0.0 0.0 0.00 0.00 0.00 100 1012.9
20260906040057 67 67 0.0 0.9 0.00 0.00 0.00 100 1012.9
20260906034531 67 67 0.0 0.0 0.00 0.00 0.00 100 1013.0
20260906033044 67 67 0.0 0.0 0.00 0.00 0.00 99 1013.1
20260906031530 68 67 0.9 1.7 0.00 0.00 0.00 100 1013.3
20260906030030 68 67 0.0 1.7 0.00 0.00 0.00 99 1013.5
20260906024529 68 67 0.0 0.0 0.00 0.00 0.00 99 1013.1
20260906023028 68 67 0.0 0.9 0.00 0.00 0.00 99 1013.0
20260906021528 69 67 0.0 0.9 0.00 0.00 0.00 99 1012.8
20260906020028 69 67 0.0 0.9 0.00 0.00 0.00 99 1012.5
20260906014529 69 67 0.0 0.0 0.00 0.00 0.00 99 1012.5
20260906013030 69 67 0.0 0.0 0.00 0.00 0.00 99 1012.6
20260906011527 70 67 0.0 0.9 0.00 0.00 0.00 99 1012.5
20260906010026 70 67 0.0 0.9 0.00 0.00 0.00 99 1012.2
20260906004526 70 67 0.0 0.0 0.00 0.00 0.00 99 1012.2
20260906003025 71 67 0.0 0.9 0.00 0.00 0.00 99 1011.9
20260906001525 71 67 0.0 1.7 0.00 0.00 0.00 99 1011.9
20260906000024 72 67 0.0 1.7 0.00 0.00 0.00 98 1011.7
20260905234524 72 68 0.0 1.7 0.00 0.00 0.00 98 1011.7
20260905233023 73 68 0.0 0.9 0.00 0.00 0.00 98 1011.5
20260905231523 73 68 0.0 0.0 0.00 0.00 0.00 97 1011.5
20260905230022 74 68 0.0 0.0 0.00 0.00 0.00 96 1011.3
20260905224551 75 68 0.0 0.0 0.00 0.00 0.00 96 1011.4
20260905223022 74 68 0.0 0.0 0.00 0.00 0.00 95 1011.4
20260905221520 74 68 0.0 0.9 0.00 0.00 0.00 95 1011.3
20260905220019 75 68 0.0 0.0 0.00 0.00 0.00 94 1011.3
20260905214517 76 68 0.0 0.0 0.00 0.00 0.00 93 1011.5
20260905213016 76 68 0.0 0.9 0.00 0.00 0.00 93 1011.6
20260905211534 75 68 0.0 1.7 0.00 0.00 0.00 92 1012.0
20260905210020 75 68 0.0 0.0 0.00 0.00 0.00 92 1012.1
20260905204513 75 68 0.9 1.7 0.00 0.00 0.00 92 1012.0
20260905203011 75 68 0.0 0.0 0.00 0.00 0.00 91 1012.1
20260905201509 76 68 0.0 0.9 0.00 0.00 0.00 88 1012.3
20260905200019 77 68 0.0 1.7 0.00 0.00 0.00 85 1012.4
20260905194505 76 56 0.9 1.7 0.00 0.00 0.00 92 1012.5
20260905193005 75 56 0.9 2.6 0.00 0.00 0.00 90 1012.9
20260905191504 78 119 0.9 2.6 0.00 0.00 0.00 87 1012.8
20260905190003 79 160 1.7 4.3 0.00 0.00 0.00 79 1012.9
20260905184504 78 166 1.7 2.6 0.00 0.00 0.00 83 1012.9
20260905183002 78 95 0.0 1.7 0.00 0.00 0.00 83 1013.2
20260905181501 76 95 0.0 2.6 0.00 0.00 0.00 88 1013.3
20260905180106 74 154 0.9 2.6 0.00 0.00 0.00 85 1013.8
20260905174600 76 87 0.0 1.7 0.00 0.00 0.00 90 1013.5
20260905173126 78 86 0.0 1.7 0.00 0.00 0.00 88 1013.2
20260905171558 80 86 0.0 0.9 0.00 0.00 0.00 82 1012.9
20260905170111 81 86 0.9 1.7 0.00 0.00 0.00 87 1012.8
20260905164605 83 86 0.0 0.9 0.00 0.00 0.00 85 1012.7
20260905163055 87 86 0.0 0.9 0.00 0.00 0.00 79 1013.2
20260905161605 88 109 0.0 1.7 0.00 0.00 0.00 71 1013.2
20260905160049 87 107 0.0 1.7 0.00 0.00 0.00 80 1013.4
20260905154546 84 198 0.0 0.0 0.00 0.00 0.00 84 1013.5
20260905153042 83 198 0.0 0.9 0.00 0.00 0.00 85 1013.4
20260905151540 83 198 0.0 0.9 0.00 0.00 0.00 87 1013.7
20260905150038 80 169 0.0 0.0 0.00 0.00 0.00 90 1013.8
20260905144530 77 169 0.0 0.0 0.00 0.00 0.00 96 1013.7
20260905143026 73 169 0.0 0.0 0.00 0.00 0.00 99 1013.9
20260905141522 71 169 0.0 0.0 0.00 0.00 0.00 99 1014.1
20260905140018 70 169 0.0 0.0 0.00 0.00 0.00 99 1014.2
20260905134518 69 169 0.0 0.0 0.00 0.00 0.00 99 1014.3
20260905133024 68 169 0.0 0.0 0.00 0.00 0.00 100 1014.4
20260905131523 67 169 0.0 0.9 0.00 0.00 0.00 100 1014.6
20260905130013 66 169 0.0 0.0 0.00 0.00 0.00 100 1014.5
20260905124614 66 169 0.0 0.0 0.00 0.00 0.00 100 1014.5
20260905123013 65 169 0.0 0.9 0.00 0.00 0.00 100 1014.4
20260905121512 65 169 0.0 0.0 0.00 0.00 0.00 100 1014.4
20260905120011 64 169 0.0 0.0 0.00 0.00 0.00 100 1014.3
20260905114511 64 169 0.0 0.0 0.00 0.00 0.00 100 1014.2
20260905113012 64 169 0.0 0.0 0.00 0.00 0.00 100 1014.0
20260905111510 64 169 0.0 0.9 0.00 0.00 0.00 100 1013.7
20260905110009 64 169 0.0 0.0 0.00 0.00 0.00 100 1013.6
20260905104508 64 169 0.0 1.7 0.00 0.00 0.00 100 1013.3
20260905103008 64 169 0.0 0.9 0.00 0.00 0.00 100 1013.3
20260905101507 64 169 0.0 0.0 0.00 0.00 0.00 100 1013.3
20260905100006 65 169 0.0 0.0 0.00 0.00 0.00 100 1013.3
20260905094505 65 169 0.0 0.0 0.00 0.00 0.00 100 1013.2
20260905093004 65 169 0.0 0.0 0.00 0.00 0.00 100 1013.2
20260905091504 65 169 0.0 0.0 0.00 0.00 0.00 100 1013.1
20260905090002 65 169 0.0 0.0 0.00 0.00 0.00 100 1013.2
20260905084600 65 169 0.0 0.0 0.00 0.00 0.00 100 1013.4
20260905083109 65 169 0.0 0.0 0.00 0.00 0.00 100 1013.7
20260905081554 66 169 0.0 0.0 0.00 0.00 0.00 100 1013.8
20260905080054 66 169 0.0 0.0 0.00 0.00 0.00 100 1013.9
20260905074552 66 169 0.0 0.0 0.00 0.00 0.00 100 1014.1
20260905073053 66 169 0.0 0.0 0.00 0.00 0.00 100 1014.2